Location: Unspecified
(48.2082°N, 0.0000°E)
Time: 10:19:23
(UTC+00:00)

Transit 4A - Pass Details

Date: 26 June 2019
Orbit: 862 x 982 km, 66.8° (Epoch: 16 July)

Event Time Altitude Azimuth Distance (km) Brightness Sun altitude
Rises 16:50:31 0° 319° (NW) 3,688 11.6 29.0°
Reaches altitude 10° 16:53:20 10° 311° (NW) 2,728 11.3 28.6°
Maximum altitude 16:58:56 33° 250° (WSW) 1,545 10.7 27.6°
Drops below altitude 10° 17:04:23 10° 188° (S) 2,653 10.4 26.7°
Sets 17:07:06 0° 179° (S) 3,574 10.9 26.3°
